This demonstration page uses our WeatherBlox Daily Observations layout. Learn more.

Left ArrowRight Arrow

Hourly Observations for May 24, 2017

Temp ( °F °C ) Dew Point ( °F °C ) Humidity (%) Winds ( mph kmh ) Pressure ( in mb ) Visibility ( mi km ) Precip ( " mm )
12:53 am 00:53 Clear 55 12.8 37 2.8 51 51 S 6 9 29.97 1015 10 16 0.00 0.00
1:53 am 01:53 Clear 51 10.6 38 3.3 61 61 Calm 29.97 1015 10 16 0.00 0.00
2:53 am 02:53 Clear 49 9.4 38 3.3 66 66 NW 3 6 29.95 1014 10 16 0.00 0.00
3:53 am 03:53 Clear 48 8.9 37 2.8 66 66 NNW 3 6 29.95 1014 10 16 0.00 0.00
4:53 am 04:53 Clear 47 8.3 37 2.8 69 69 NW 3 6 29.93 1013 10 16 0.00 0.00
5:53 am 05:53 Clear 45 7.2 37 2.8 74 74 N 6 9 29.92 1013 10 16 0.00 0.00
6:53 am 06:53 Sunny 45 7.2 38 3.3 77 77 NNE 5 7 29.92 1013 10 16 0.00 0.00
7:53 am 07:53 Sunny 53 11.7 41 5 64 64 Calm 29.91 1013 10 16 0.00 0.00
8:22 am 08:22 Mostly Sunny 58 14.4 42 5.6 56 56 Calm 29.94 1014 10 16 0.00 0.00
8:53 am 08:53 Sunny 63 17.2 43 6.1 48 48 W 5 7 29.90 1013 10 16 0.00 0.00
9:53 am 09:53 Sunny 70 21.1 39 3.9 32 32 SSW 9 15 29.88 1012 10 16 0.00 0.00
10:53 am 10:53 Sunny 73 22.8 35 1.7 25 25 SW 12 19 29.87 1011 10 16 0.00 0.00
11:53 am 11:53 Sunny 76 24.4 32 0 20 20 S 10 17 29.84 1011 10 16 0.00 0.00
12:53 pm 12:53 Sunny 79 26.1 32 0 18 18 S 13 20 29.80 1009 10 16 0.00 0.00
1:53 pm 13:53 Sunny 84 28.9 30 -1.1 14 14 SW 13 20 29.76 1008 10 16 0.00 0.00
2:53 pm 14:53 Sunny 84 28.9 30 -1.1 14 14 SW 7 11 29.72 1007 10 16 0.00 0.00
3:53 pm 15:53 Sunny 89 31.7 28 -2.2 11 11 undefined N/A 29.68 1005 10 16 0.00 0.00
4:53 pm 16:53 Sunny 90 32.2 30 -1.1 12 12 VRB 3 6 29.63 1004 10 16 0.00 0.00
5:53 pm 17:53 Sunny 92 33.3 31 -0.6 11 11 WSW 10 17 29.60 1002 10 16 0.00 0.00
6:53 pm 18:53 Sunny 93 33.9 28 -2.2 10 10 SW 12 19 29.57 1001 10 16 0.00 0.00
7:53 pm 19:53 Sunny 93 33.9 29 -1.7 10 10 WSW 8 13 29.54 1000 10 16 0.00 0.00
8:53 pm 20:53 Clear 88 31.1 31 -0.6 13 13 SE 3 6 29.53 1000 10 16 0.00 0.00
9:53 pm 21:53 Clear 80 26.7 35 1.7 20 20 SE 10 17 29.55 1001 10 16 0.00 0.00
10:53 pm 22:53 Clear 77 25 42 5.6 29 29 SE 12 19 29.57 1001 10 16 0.00 0.00
11:53 pm 23:53 Clear 73 22.8 44 6.7 35 35 SE 12 19 29.57 1001 10 16 0.00 0.00

Powered by AerisWeather